Hourly Weather Roundup
Issued by NWS Central Illinois

Home | Current Version | Previous Version | Text Only | Print | Product List | Glossary On
Versions: 1 2 3 4 5 6 7 8 9 10 11 12 13 14 15 16 17 18 19 20 21 22 23 24 25 26 27 28 29 30 31 32 33 34 35 36 37 38 39 40 41 42 43 44 45 46 47 48 49 50
000
NZUS43 KILX 010210
HWRILX

AREA WEATHER ROUNDUP
NATIONAL WEATHER SERVICE, LINCOLN IL
900 PM CDT THU JUL 31 2014


CITY           SKY/WX    TMP DP  RH WIND       PRES   REMARKS
BLOOMINGTON    CLEAR     69  60  73 S5        30.08R
CHAMPAIGN      CLEAR     68  63  84 CALM      30.08R
DECATUR        CLEAR     72  62  71 SE3       30.06S
FLORA          PTCLDY    70  64  81 SE3       30.07R
GALESBURG      CLEAR     68  64  87 CALM      30.06R
JACKSONVILLE   CLEAR     70  65  83 CALM      30.07R
LACON          CLEAR     68  63  82 CALM      30.04R
LAWRENCEVILLE  PTCLDY    70  65  84 CALM      30.07R
LITCHFIELD     CLEAR     69  61  75 CALM      30.06R
$$


CITY           SKY/WX    TMP DP  RH WIND       PRES   REMARKS
LINCOLN        CLEAR     70  63  78 CALM      30.04R
MACOMB         CLEAR     66  63  91 CALM      30.08R
MATTOON        CLEAR     69  63  81 CALM      30.06S
MT CARMEL AP   PTCLDY    70  66  88 N3        30.06R
OLNEY-NOBLE AP CLOUDY    68  66  94 CALM      30.07R
PARIS          CLEAR     64  63  96 CALM      30.08R FOG
PEORIA         CLEAR     74  63  68 CALM      30.05S
PONTIAC        CLEAR     68  64  88 CALM      30.06R
RANTOUL        CLEAR     68  62  80 SW3       30.08R
ROBINSON       CLEAR     68  65  89 CALM      30.08R
SPRINGFIELD    CLEAR     71  64  78 CALM      30.06R
TAYLORVILLE    CLEAR     66  63  88 CALM      30.06R
$$

...REGIONAL REPORTS...


CITY           SKY/WX    TMP DP  RH WIND       PRES   REMARKS
CHICAGO O`HARE PTCLDY    74  56  53 W5        30.02S
KANKAKEE       CLEAR     69  64  83 SW3       30.06R
MOLINE         PTCLDY    71  62  73 CALM      30.03S
MOUNT VERNON   CLEAR     66  59  77 CALM      30.07R
PITTSFIELD     CLEAR     69  64  85 CALM      30.07R
QUINCY         CLEAR     74  60  61 E3        30.05S
ROCKFORD       CLEAR     70  59  68 S3        30.05R
$$


CITY           SKY/WX    TMP DP  RH WIND       PRES   REMARKS
BURLINGTON     CLEAR     68  64  87 CALM      30.04S FOG
CEDAR RAPIDS   CLEAR     69  62  78 CALM      30.03S
DES MOINES     CLOUDY    71  63  75 CALM      30.03F
KIRKSVILLE     CLEAR     67  62  84 CALM      30.06S
OTTUMWA        MOCLDY    71  65  81 CALM      30.04S
ST LOUIS       PTCLDY    79  60  52 E5        30.05S HX  80
$$


CITY           SKY/WX    TMP DP  RH WIND       PRES   REMARKS
TERRE HAUTE    CLOUDY    71  63  75 E3        30.07R
EVANSVILLE     PTCLDY    74  63  68 CALM      30.06R
INDIANAPOLIS   CLEAR     73  59  61 CALM      30.08R
LAFAYETTE      CLEAR     68  64  87 CALM      30.06R
MADISON        MOCLDY    70  59  68 CALM      30.02R
MILWAUKEE      PTCLDY    76  58  53 W5        30.01R
$$




USA.gov is the U.S. government's official web portal to all federal, state and local government web resources and services.